Flemington, NJ

11:36 AM EDT on October 23, 2014 (GMT -0400)
North Forty Doghouse | Change Station
CLOSE
Current Station
Personal Weather Station
Location: Flemington, NJ
Elevation: 180 ft
Nearby Weather Stations

Elev 180 ft 40.50 °N, 74.83 °W | Updated 1 minute ago

Overcast
Overcast
50.0 °F
Feels Like 47 °F
N
7.0
Wind Variable Wind from North
Gusts 21.0 mph

Today
High -- | Low -- °F
--% Chance of Precip.
Yesterday
High -- | Low -- °F
Precip. -- in
7:19 AM 6:07 PM
Waning Crescent, 0% visible
Pressure 29.74 in
Visibility 10.0 miles
Clouds Scattered Clouds 2400 ft
Mostly Cloudy 4700 ft
Overcast 6000 ft
Windchill 47 °F
Dew Point 47 °F
Humidity 88%
Rainfall 0.11 in
Snow Depth Not available.
UV 1 out of 12
Pollen .10 out of 12
Air Quality Not available.
Flu Activity Sporadic
SPECI KSMQ 231519Z AUTO 33012G18KT 10SM -RA SCT024 BKN047 OVC060 12/07 A2974 RMK AO2 RAB09 P0001 T01170072

More Conditions Fewer Conditions

Pressure 29.74 in
Visibility 10.0 miles
Clouds Scattered Clouds 2400 ft
Mostly Cloudy 4700 ft
Overcast 6000 ft
Windchill 47 °F
Dew Point 47 °F
Humidity 88%
Rainfall 0.11 in
Snow Depth Not available.
UV 1 out of 12
Pollen .10 out of 12
Air Quality Not available.
Flu Activity Sporadic
SPECI KSMQ 231519Z AUTO 33012G18KT 10SM -RA SCT024 BKN047 OVC060 12/07 A2974 RMK AO2 RAB09 P0001 T01170072

More Conditions Fewer Conditions

10-Day Weather Forecast

Almanac

Astronomy

Oct. 23, 2014 Rise Set
Actual Time 7:19 AM EDT 6:07 PM EDT
Civil Twilight 6:51 AM EDT 6:35 PM EDT
Nautical Twilight 6:19 AM EDT 7:07 PM EDT
Astronomical Twilight 5:47 AM EDT 7:38 PM EDT
Moon 6:56 AM EDT 6:07 PM EDT
Length of Visible Light 11h 44m
Length of Day
10h 48m
Tomorrow will be 2m 30s shorter.
Waning Crescent, 0% of the Moon is Illuminated
Today
Waning Crescent
Oct 23
New
Oct 30
First Quarter
Nov 6
Full
Nov 14
Last Quarter

Today's Extremes

State Highs State Lows

Community

WunderPhotos

Upload Photos

1,764,285 photos uploaded!

Nearby

Snow Depth

Station Depth Elevation
No new snow has been reported.

Earthquake Activity

City Distance Mag. Time & Date
No recent earthquake activity has been reported nearby.
Minimum magnitude displayed is 2.5.

Coastal Water Temperatures

Place Temperature
No Stations Reporting

Nearby Weather Stations